Time,TemperatureF,DewpointF,PressureIn,WindDirection,WindDirectionDegrees,WindSpeedMPH,WindSpeedGustMPH,Humidity,HourlyPrecipIn,Conditions,Clouds,dailyrainin,SoftwareType,DateUTC
2013-09-11 00:14:00,63.0,-99.9,-100.00,North,-999,-999.0,-999.0,-999,0.00,,,0.12,,2013-09-11 04:14:00,
2013-09-11 00:24:00,63.0,-99.9,-100.00,North,-999,-999.0,-999.0,-999,0.00,,,0.12,,2013-09-11 04:24:00,
2013-09-11 00:34:00,63.0,-99.9,-100.00,North,-999,-999.0,-999.0,-999,0.00,,,0.12,,2013-09-11 04:34:00,
2013-09-11 00:44:00,63.0,-99.9,-100.00,North,-999,-999.0,-999.0,-999,0.00,,,0.12,,2013-09-11 04:44:00,
2013-09-11 01:13:00,63.0,-99.9,-100.00,North,-999,-999.0,-999.0,-999,0.00,,,0.12,,2013-09-11 05:13:00,
2013-09-11 01:23:00,63.0,-99.9,-100.00,North,-999,-999.0,-999.0,-999,0.00,,,0.12,,2013-09-11 05:23:00,
2013-09-11 01:34:00,63.0,-99.9,-100.00,North,-999,-999.0,-999.0,-999,0.00,,,0.12,,2013-09-11 05:34:00,
2013-09-11 01:43:00,63.0,-99.9,-100.00,North,-999,-999.0,-999.0,-999,0.00,,,0.12,,2013-09-11 05:43:00,
2013-09-11 02:12:00,63.0,-99.9,-100.00,North,-999,-999.0,-999.0,-999,0.00,,,0.12,,2013-09-11 06:12:00,
2013-09-11 02:22:00,63.0,-99.9,-100.00,North,-999,-999.0,-999.0,-999,0.00,,,0.12,,2013-09-11 06:22:00,
2013-09-11 02:33:00,63.0,-99.9,-100.00,North,-999,-999.0,-999.0,-999,0.00,,,0.12,,2013-09-11 06:33:00,
2013-09-11 02:42:00,63.0,-99.9,-100.00,North,-999,-999.0,-999.0,-999,0.00,,,0.12,,2013-09-11 06:42:00,
2013-09-11 03:12:00,64.0,-99.9,-100.00,North,-999,-999.0,-999.0,-999,0.00,,,0.12,,2013-09-11 07:12:00,
2013-09-11 03:24:00,64.0,-99.9,-100.00,North,-999,-999.0,-999.0,-999,0.00,,,0.12,,2013-09-11 07:24:00,
2013-09-11 03:32:00,64.0,-99.9,-100.00,North,-999,-999.0,-999.0,-999,0.00,,,0.12,,2013-09-11 07:32:00,
2013-09-11 03:42:00,64.0,-99.9,-100.00,North,-999,-999.0,-999.0,-999,0.00,,,0.12,,2013-09-11 07:42:00,
2013-09-11 04:12:00,64.0,-99.9,-100.00,North,-999,-999.0,-999.0,-999,0.00,,,0.12,,2013-09-11 08:12:00,
2013-09-11 04:22:00,64.0,-99.9,-100.00,North,-999,-999.0,-999.0,-999,0.00,,,0.12,,2013-09-11 08:22:00,
2013-09-11 04:32:00,64.0,-99.9,-100.00,North,-999,-999.0,-999.0,-999,0.00,,,0.12,,2013-09-11 08:32:00,
2013-09-11 04:42:00,64.0,-99.9,-100.00,North,-999,-999.0,-999.0,-999,0.00,,,0.12,,2013-09-11 08:42:00,
2013-09-11 05:12:00,64.0,-99.9,-100.00,North,-999,-999.0,-999.0,-999,0.00,,,0.12,,2013-09-11 09:12:00,
2013-09-11 05:22:00,64.0,-99.9,-100.00,North,-999,-999.0,-999.0,-999,0.00,,,0.12,,2013-09-11 09:22:00,
2013-09-11 05:33:00,64.0,-99.9,-100.00,North,-999,-999.0,-999.0,-999,0.00,,,0.12,,2013-09-11 09:33:00,
2013-09-11 05:43:00,64.0,-99.9,-100.00,North,-999,-999.0,-999.0,-999,0.00,,,0.12,,2013-09-11 09:43:00,
2013-09-11 06:13:00,64.0,-99.9,-100.00,North,-999,-999.0,-999.0,-999,0.01,,,0.13,,2013-09-11 10:13:00,
2013-09-11 06:24:00,64.0,-99.9,-100.00,North,-999,-999.0,-999.0,-999,0.01,,,0.13,,2013-09-11 10:24:00,
2013-09-11 06:33:00,64.0,-99.9,-100.00,North,-999,-999.0,-999.0,-999,0.01,,,0.13,,2013-09-11 10:33:00,
2013-09-11 06:43:00,64.0,-99.9,-100.00,North,-999,-999.0,-999.0,-999,0.01,,,0.13,,2013-09-11 10:43:00,
2013-09-11 07:12:00,65.0,-99.9,-100.00,North,-999,-999.0,-999.0,-999,0.00,,,0.13,,2013-09-11 11:12:00,
2013-09-11 07:22:00,65.0,-99.9,-100.00,North,-999,-999.0,-999.0,-999,0.00,,,0.13,,2013-09-11 11:22:00,
2013-09-11 07:34:00,65.0,-99.9,-100.00,North,-999,-999.0,-999.0,-999,0.00,,,0.13,,2013-09-11 11:34:00,
2013-09-11 07:42:00,65.0,-99.9,-100.00,North,-999,-999.0,-999.0,-999,0.00,,,0.13,,2013-09-11 11:42:00,
2013-09-11 08:12:00,66.0,-99.9,-100.00,North,-999,-999.0,-999.0,-999,0.00,,,0.13,,2013-09-11 12:12:00,
2013-09-11 08:22:00,66.0,-99.9,-100.00,North,-999,-999.0,-999.0,-999,0.00,,,0.13,,2013-09-11 12:22:00,
2013-09-11 08:32:00,66.0,-99.9,-100.00,North,-999,-999.0,-999.0,-999,0.00,,,0.13,,2013-09-11 12:32:00,
2013-09-11 08:42:00,66.0,-99.9,-100.00,North,-999,-999.0,-999.0,-999,0.00,,,0.13,,2013-09-11 12:42:00,
2013-09-11 09:12:00,69.0,-99.9,-100.00,North,-999,-999.0,-999.0,-999,0.00,,,-99.99,,2013-09-11 13:12:00,
2013-09-11 09:22:00,69.0,-99.9,-100.00,North,-999,-999.0,-999.0,-999,0.00,,,-99.99,,2013-09-11 13:22:00,
2013-09-11 09:33:00,69.0,-99.9,-100.00,North,-999,-999.0,-999.0,-999,0.00,,,-99.99,,2013-09-11 13:33:00,
2013-09-11 09:42:00,69.0,-99.9,-100.00,North,-999,-999.0,-999.0,-999,0.00,,,-99.99,,2013-09-11 13:42:00,
2013-09-11 10:11:00,75.0,-99.9,-100.00,North,-999,-999.0,-999.0,-999,0.00,,,0.13,,2013-09-11 14:11:00,
2013-09-11 10:22:00,75.0,-99.9,-100.00,North,-999,-999.0,-999.0,-999,0.00,,,0.13,,2013-09-11 14:22:00,
2013-09-11 10:32:00,75.0,-99.9,-100.00,North,-999,-999.0,-999.0,-999,0.00,,,0.13,,2013-09-11 14:32:00,
2013-09-11 10:42:00,75.0,-99.9,-100.00,North,-999,-999.0,-999.0,-999,0.00,,,0.13,,2013-09-11 14:42:00,
2013-09-11 11:12:00,80.0,-99.9,-100.00,North,-999,-999.0,-999.0,-999,0.00,,,0.13,,2013-09-11 15:12:00,
2013-09-11 11:22:00,80.0,-99.9,-100.00,North,-999,-999.0,-999.0,-999,0.00,,,0.13,,2013-09-11 15:22:00,
2013-09-11 11:33:00,80.0,-99.9,-100.00,North,-999,-999.0,-999.0,-999,0.00,,,0.13,,2013-09-11 15:33:00,
2013-09-11 11:43:00,80.0,-99.9,-100.00,North,-999,-999.0,-999.0,-999,0.00,,,0.13,,2013-09-11 15:43:00,
2013-09-11 12:13:00,82.0,-99.9,-100.00,North,-999,-999.0,-999.0,-999,0.00,,,0.12,,2013-09-11 16:13:00,
2013-09-11 12:23:00,82.0,-99.9,-100.00,North,-999,-999.0,-999.0,-999,0.00,,,0.12,,2013-09-11 16:23:00,
2013-09-11 12:33:00,82.0,-99.9,-100.00,North,-999,-999.0,-999.0,-999,0.00,,,0.12,,2013-09-11 16:33:00,
2013-09-11 12:43:00,82.0,-99.9,-100.00,North,-999,-999.0,-999.0,-999,0.00,,,0.12,,2013-09-11 16:43:00,
2013-09-11 13:13:00,85.0,-99.9,-100.00,North,-999,-999.0,-999.0,-999,0.00,,,0.02,,2013-09-11 17:13:00,
2013-09-11 13:24:00,85.0,-99.9,-100.00,North,-999,-999.0,-999.0,-999,0.00,,,0.02,,2013-09-11 17:24:00,
2013-09-11 13:34:00,85.0,-99.9,-100.00,North,-999,-999.0,-999.0,-999,0.00,,,0.02,,2013-09-11 17:34:00,
2013-09-11 13:43:00,85.0,-99.9,-100.00,North,-999,-999.0,-999.0,-999,0.00,,,0.02,,2013-09-11 17:43:00,
2013-09-11 14:12:00,87.0,-99.9,-100.00,North,-999,-999.0,-999.0,-999,0.00,,,0.01,,2013-09-11 18:12:00,
2013-09-11 14:22:00,87.0,-99.9,-100.00,North,-999,-999.0,-999.0,-999,0.00,,,0.01,,2013-09-11 18:22:00,
2013-09-11 14:33:00,87.0,-99.9,-100.00,North,-999,-999.0,-999.0,-999,0.00,,,0.01,,2013-09-11 18:33:00,
2013-09-11 14:42:00,87.0,-99.9,-100.00,North,-999,-999.0,-999.0,-999,0.00,,,0.01,,2013-09-11 18:42:00,
2013-09-11 15:12:00,88.0,-99.9,-100.00,North,-999,-999.0,-999.0,-999,0.00,,,0.01,,2013-09-11 19:12:00,
2013-09-11 15:22:00,88.0,-99.9,-100.00,North,-999,-999.0,-999.0,-999,0.00,,,0.01,,2013-09-11 19:22:00,
2013-09-11 15:32:00,88.0,-99.9,-100.00,North,-999,-999.0,-999.0,-999,0.00,,,0.01,,2013-09-11 19:32:00,
2013-09-11 15:43:00,88.0,-99.9,-100.00,North,-999,-999.0,-999.0,-999,0.00,,,0.01,,2013-09-11 19:43:00,
2013-09-11 16:12:00,86.0,-99.9,-100.00,North,-999,-999.0,-999.0,-999,0.00,,,0.01,,2013-09-11 20:12:00,
2013-09-11 16:22:00,86.0,-99.9,-100.00,North,-999,-999.0,-999.0,-999,0.00,,,0.01,,2013-09-11 20:22:00,
2013-09-11 16:32:00,86.0,-99.9,-100.00,North,-999,-999.0,-999.0,-999,0.00,,,0.01,,2013-09-11 20:32:00,
2013-09-11 16:42:00,86.0,-99.9,-100.00,North,-999,-999.0,-999.0,-999,0.00,,,0.01,,2013-09-11 20:42:00,
2013-09-11 17:12:00,85.0,-99.9,-100.00,North,-999,-999.0,-999.0,-999,0.00,,,0.01,,2013-09-11 21:12:00,
2013-09-11 17:22:00,85.0,-99.9,-100.00,North,-999,-999.0,-999.0,-999,0.00,,,0.01,,2013-09-11 21:22:00,
2013-09-11 17:34:00,85.0,-99.9,-100.00,North,-999,-999.0,-999.0,-999,0.00,,,0.01,,2013-09-11 21:34:00,
2013-09-11 17:44:00,85.0,-99.9,-100.00,North,-999,-999.0,-999.0,-999,0.00,,,0.01,,2013-09-11 21:44:00,
2013-09-11 18:43:00,82.0,-99.9,-100.00,North,-999,-999.0,-999.0,-999,0.00,,,0.01,,2013-09-11 22:43:00,
2013-09-11 19:12:00,78.0,-99.9,-100.00,North,-999,-999.0,-999.0,-999,0.00,,,0.01,,2013-09-11 23:12:00,
2013-09-11 19:22:00,78.0,-99.9,-100.00,North,-999,-999.0,-999.0,-999,0.00,,,0.01,,2013-09-11 23:22:00,
2013-09-11 19:34:00,78.0,-99.9,-100.00,North,-999,-999.0,-999.0,-999,0.00,,,0.01,,2013-09-11 23:34:00,
2013-09-11 19:43:00,78.0,-99.9,-100.00,North,-999,-999.0,-999.0,-999,0.00,,,0.01,,2013-09-11 23:43:00,
2013-09-11 20:12:00,75.0,-99.9,-100.00,North,-999,-999.0,-999.0,-999,0.00,,,0.01,,2013-09-12 00:12:00,
2013-09-11 20:22:00,75.0,-99.9,-100.00,North,-999,-999.0,-999.0,-999,0.00,,,0.01,,2013-09-12 00:22:00,
2013-09-11 20:32:00,75.0,-99.9,-100.00,North,-999,-999.0,-999.0,-999,0.00,,,0.01,,2013-09-12 00:32:00,
2013-09-11 20:42:00,75.0,-99.9,-100.00,North,-999,-999.0,-999.0,-999,0.00,,,0.01,,2013-09-12 00:42:00,
2013-09-11 21:11:00,74.0,-99.9,-100.00,North,-999,-999.0,-999.0,-999,0.00,,,0.01,,2013-09-12 01:11:00,
2013-09-11 21:23:00,74.0,-99.9,-100.00,North,-999,-999.0,-999.0,-999,0.00,,,0.01,,2013-09-12 01:23:00,
2013-09-11 21:32:00,74.0,-99.9,-100.00,North,-999,-999.0,-999.0,-999,0.00,,,0.01,,2013-09-12 01:32:00,
2013-09-11 21:42:00,74.0,-99.9,-100.00,North,-999,-999.0,-999.0,-999,0.00,,,0.01,,2013-09-12 01:42:00,
2013-09-11 22:12:00,69.0,-99.9,-100.00,North,-999,-999.0,-999.0,-999,0.08,,,0.09,,2013-09-12 02:12:00,
2013-09-11 22:22:00,69.0,-99.9,-100.00,North,-999,-999.0,-999.0,-999,0.08,,,0.09,,2013-09-12 02:22:00,
2013-09-11 22:33:00,69.0,-99.9,-100.00,North,-999,-999.0,-999.0,-999,0.08,,,0.09,,2013-09-12 02:33:00,
2013-09-11 22:42:00,69.0,-99.9,-100.00,North,-999,-999.0,-999.0,-999,0.08,,,0.09,,2013-09-12 02:42:00,
2013-09-11 22:45:00,68.0,-99.9,-100.00,North,-999,-999.0,-999.0,-999,0.07,,,0.16,,2013-09-12 02:45:00,
2013-09-11 23:12:00,68.0,-99.9,-100.00,North,-999,-999.0,-999.0,-999,0.07,,,0.16,,2013-09-12 03:12:00,
2013-09-11 23:22:00,68.0,-99.9,-100.00,North,-999,-999.0,-999.0,-999,0.07,,,0.16,,2013-09-12 03:22:00,
2013-09-11 23:34:00,68.0,-99.9,-100.00,North,-999,-999.0,-999.0,-999,0.07,,,0.16,,2013-09-12 03:34:00,